Time,TemperatureF,DewpointF,PressureIn,WindDirection,WindDirectionDegrees,WindSpeedMPH,WindSpeedGustMPH,Humidity,HourlyPrecipIn,Conditions,Clouds,dailyrainin,SoftwareType,DateUTC
2013-07-28 00:10:00,67.5,66.0,29.90,East,92,0.0,-999.0,95,-99.99,,,0.00,weatherlink.com 1.10,2013-07-28 04:10:00,
2013-07-28 00:25:00,67.4,66.0,29.89,East,92,0.0,-999.0,95,-99.99,,,0.00,weatherlink.com 1.10,2013-07-28 04:25:00,
2013-07-28 00:40:00,67.2,66.0,29.89,East,92,0.0,-999.0,95,-99.99,,,0.00,weatherlink.com 1.10,2013-07-28 04:40:00,
2013-07-28 00:55:00,67.0,66.0,29.88,East,92,0.0,-999.0,95,-99.99,,,0.00,weatherlink.com 1.10,2013-07-28 04:55:00,
2013-07-28 01:10:00,66.8,65.0,29.88,East,92,0.0,-999.0,95,-99.99,,,0.00,weatherlink.com 1.10,2013-07-28 05:10:00,
2013-07-28 01:26:00,66.7,65.0,29.88,East,92,0.0,-999.0,95,-99.99,,,0.00,weatherlink.com 1.10,2013-07-28 05:26:00,
2013-07-28 01:41:00,66.8,65.0,29.88,East,92,0.0,-999.0,95,-99.99,,,0.00,weatherlink.com 1.10,2013-07-28 05:41:00,
2013-07-28 01:56:00,66.8,65.0,29.88,East,92,0.0,-999.0,95,-99.99,,,0.00,weatherlink.com 1.10,2013-07-28 05:56:00,
2013-07-28 02:11:00,66.8,65.0,29.88,East,92,0.0,-999.0,95,-99.99,,,0.02,weatherlink.com 1.10,2013-07-28 06:11:00,
2013-07-28 02:26:00,67.0,66.0,29.88,East,81,0.0,-999.0,96,-99.99,,,0.03,weatherlink.com 1.10,2013-07-28 06:26:00,
2013-07-28 02:41:00,67.2,66.0,29.88,East,82,0.0,-999.0,96,-99.99,,,0.03,weatherlink.com 1.10,2013-07-28 06:41:00,
2013-07-28 02:56:00,67.3,66.0,29.88,East,82,0.0,-999.0,96,-99.99,,,0.03,weatherlink.com 1.10,2013-07-28 06:56:00,
2013-07-28 03:11:00,67.4,66.0,29.88,East,82,0.0,-999.0,96,-99.99,,,0.03,weatherlink.com 1.10,2013-07-28 07:11:00,
2013-07-28 03:26:00,67.5,66.0,29.88,East,82,0.0,-999.0,96,-99.99,,,0.03,weatherlink.com 1.10,2013-07-28 07:26:00,
2013-07-28 03:41:00,67.6,67.0,29.88,East,82,0.0,-999.0,96,-99.99,,,0.03,weatherlink.com 1.10,2013-07-28 07:41:00,
2013-07-28 03:56:00,67.7,67.0,29.87,East,82,0.0,-999.0,96,-99.99,,,0.03,weatherlink.com 1.10,2013-07-28 07:56:00,
2013-07-28 04:11:00,67.7,67.0,29.87,East,82,0.0,-999.0,96,-99.99,,,0.03,weatherlink.com 1.10,2013-07-28 08:11:00,
2013-07-28 04:26:00,67.7,67.0,29.87,East,82,0.0,-999.0,96,-99.99,,,0.03,weatherlink.com 1.10,2013-07-28 08:26:00,
2013-07-28 04:41:00,67.8,67.0,29.87,East,82,0.0,-999.0,96,-99.99,,,0.03,weatherlink.com 1.10,2013-07-28 08:41:00,
2013-07-28 04:56:00,67.8,67.0,29.87,East,82,0.0,-999.0,96,-99.99,,,0.03,weatherlink.com 1.10,2013-07-28 08:56:00,
2013-07-28 05:11:00,67.7,67.0,29.87,East,82,0.0,-999.0,96,-99.99,,,0.03,weatherlink.com 1.10,2013-07-28 09:11:00,
2013-07-28 05:26:00,67.8,67.0,29.88,East,82,0.0,-999.0,96,-99.99,,,0.03,weatherlink.com 1.10,2013-07-28 09:26:00,
2013-07-28 05:41:00,67.8,67.0,29.88,East,82,0.0,-999.0,96,-99.99,,,0.03,weatherlink.com 1.10,2013-07-28 09:41:00,
2013-07-28 05:56:00,67.8,67.0,29.88,East,82,0.0,-999.0,96,-99.99,,,0.03,weatherlink.com 1.10,2013-07-28 09:56:00,
2013-07-28 06:11:00,67.8,67.0,29.89,East,82,0.0,-999.0,96,-99.99,,,0.03,weatherlink.com 1.10,2013-07-28 10:11:00,
2013-07-28 06:26:00,67.7,67.0,29.89,East,82,0.0,-999.0,96,-99.99,,,0.03,weatherlink.com 1.10,2013-07-28 10:26:00,
2013-07-28 06:41:00,67.8,67.0,29.89,East,82,0.0,-999.0,96,-99.99,,,0.03,weatherlink.com 1.10,2013-07-28 10:41:00,
2013-07-28 06:56:00,67.9,67.0,29.89,East,82,0.0,-999.0,96,-99.99,,,0.03,weatherlink.com 1.10,2013-07-28 10:56:00,
2013-07-28 07:11:00,68.1,67.0,29.90,East,82,0.0,-999.0,96,-99.99,,,0.03,weatherlink.com 1.10,2013-07-28 11:11:00,
2013-07-28 07:26:00,68.4,68.0,29.90,East,82,0.0,-999.0,97,-99.99,,,0.03,weatherlink.com 1.10,2013-07-28 11:26:00,
2013-07-28 07:41:00,68.8,68.0,29.89,East,82,0.0,-999.0,97,-99.99,,,0.03,weatherlink.com 1.10,2013-07-28 11:41:00,
2013-07-28 07:56:00,69.1,68.0,29.89,East,82,0.0,-999.0,97,-99.99,,,0.03,weatherlink.com 1.10,2013-07-28 11:56:00,
2013-07-28 08:26:00,70.1,69.0,29.89,NE,55,0.0,-999.0,97,-99.99,,,0.03,weatherlink.com 1.10,2013-07-28 12:26:00,
2013-07-28 08:41:00,70.3,69.0,29.88,ENE,78,0.0,-999.0,96,-99.99,,,0.03,weatherlink.com 1.10,2013-07-28 12:41:00,
2013-07-28 08:56:00,70.5,69.0,29.89,SW,219,0.0,-999.0,96,-99.99,,,0.03,weatherlink.com 1.10,2013-07-28 12:56:00,
2013-07-28 09:11:00,70.7,69.0,29.88,NE,51,0.0,-999.0,95,-99.99,,,0.03,weatherlink.com 1.10,2013-07-28 13:11:00,
2013-07-28 09:26:00,71.0,70.0,29.88,East,82,0.0,-999.0,95,-99.99,,,0.03,weatherlink.com 1.10,2013-07-28 13:26:00,
2013-07-28 09:41:00,71.2,69.0,29.88,SW,217,0.0,-999.0,93,-99.99,,,0.03,weatherlink.com 1.10,2013-07-28 13:41:00,
2013-07-28 09:56:00,71.9,69.0,29.88,SW,234,0.0,-999.0,91,-99.99,,,0.03,weatherlink.com 1.10,2013-07-28 13:56:00,
2013-07-28 10:11:00,72.2,69.0,29.88,SSW,212,0.0,-999.0,89,-99.99,,,0.06,weatherlink.com 1.10,2013-07-28 14:11:00,
2013-07-28 10:26:00,71.9,69.0,29.88,SW,234,1.0,-999.0,89,-99.99,,,0.06,weatherlink.com 1.10,2013-07-28 14:26:00,
2013-07-28 10:41:00,69.7,64.0,29.89,WNW,294,1.0,-999.0,83,-99.99,,,0.06,weatherlink.com 1.10,2013-07-28 14:41:00,
2013-07-28 10:56:00,68.6,64.0,29.89,SW,222,0.0,-999.0,85,-99.99,,,0.06,weatherlink.com 1.10,2013-07-28 14:56:00,
2013-07-28 11:11:00,67.5,63.0,29.90,NE,51,0.0,-999.0,85,-99.99,,,0.06,weatherlink.com 1.10,2013-07-28 15:11:00,
2013-07-28 11:26:00,67.3,63.0,29.90,NE,49,0.0,-999.0,87,-99.99,,,0.06,weatherlink.com 1.10,2013-07-28 15:26:00,
2013-07-28 11:56:00,69.5,65.0,29.90,SSW,200,2.0,-999.0,85,-99.99,,,0.06,weatherlink.com 1.10,2013-07-28 15:56:00,
2013-07-28 12:11:00,70.0,65.0,29.90,SSW,200,0.0,-999.0,84,-99.99,,,0.06,weatherlink.com 1.10,2013-07-28 16:11:00,
2013-07-28 12:41:00,72.1,66.0,29.90,NE,40,0.0,-999.0,81,-99.99,,,0.06,weatherlink.com 1.10,2013-07-28 16:41:00,
2013-07-28 12:56:00,73.0,67.0,29.90,NE,34,2.0,-999.0,81,-99.99,,,0.06,weatherlink.com 1.10,2013-07-28 16:56:00,
2013-07-28 13:12:00,73.7,67.0,29.90,West,279,0.0,-999.0,80,-99.99,,,0.06,weatherlink.com 1.10,2013-07-28 17:12:00,
2013-07-28 13:41:00,74.0,68.0,29.90,NW,306,0.0,-999.0,80,-99.99,,,0.06,weatherlink.com 1.10,2013-07-28 17:41:00,
2013-07-28 13:56:00,73.5,68.0,29.89,NW,306,0.0,-999.0,83,-99.99,,,0.14,weatherlink.com 1.10,2013-07-28 17:56:00,
2013-07-28 14:11:00,71.7,68.0,29.90,SSW,195,0.0,-999.0,87,-99.99,,,0.58,weatherlink.com 1.10,2013-07-28 18:11:00,
2013-07-28 14:26:00,71.1,68.0,29.89,SSE,167,0.0,-999.0,90,-99.99,,,0.62,weatherlink.com 1.10,2013-07-28 18:26:00,
2013-07-28 14:42:00,70.6,68.0,29.89,SSE,161,0.0,-999.0,91,-99.99,,,0.62,weatherlink.com 1.10,2013-07-28 18:42:00,
2013-07-28 14:57:00,71.3,69.0,29.89,SSE,161,0.0,-999.0,92,-99.99,,,0.62,weatherlink.com 1.10,2013-07-28 18:57:00,
2013-07-28 15:11:00,71.5,69.0,29.89,SSE,161,0.0,-999.0,92,-99.99,,,0.63,weatherlink.com 1.10,2013-07-28 19:11:00,
2013-07-28 15:26:00,71.7,70.0,29.88,SSE,161,0.0,-999.0,93,-99.99,,,0.63,weatherlink.com 1.10,2013-07-28 19:26:00,
2013-07-28 15:42:00,72.5,70.0,29.87,SSE,160,0.0,-999.0,93,-99.99,,,0.63,weatherlink.com 1.10,2013-07-28 19:42:00,
2013-07-28 15:57:00,73.9,71.0,29.87,SSE,159,0.0,-999.0,91,-99.99,,,0.63,weatherlink.com 1.10,2013-07-28 19:57:00,
2013-07-28 16:12:00,76.2,71.0,29.87,SSE,159,0.0,-999.0,84,-99.99,,,0.63,weatherlink.com 1.10,2013-07-28 20:12:00,
2013-07-28 16:27:00,77.9,73.0,29.86,SSE,158,0.0,-999.0,84,-99.99,,,0.63,weatherlink.com 1.10,2013-07-28 20:27:00,
2013-07-28 16:42:00,79.1,72.0,29.86,East,95,0.0,-999.0,78,-99.99,,,0.63,weatherlink.com 1.10,2013-07-28 20:42:00,
2013-07-28 16:57:00,80.7,71.0,29.86,South,182,0.0,-999.0,73,-99.99,,,0.63,weatherlink.com 1.10,2013-07-28 20:57:00,
2013-07-28 17:12:00,82.2,71.0,29.86,SW,214,0.0,-999.0,68,-99.99,,,0.63,weatherlink.com 1.10,2013-07-28 21:12:00,
2013-07-28 17:27:00,82.7,72.0,29.86,ESE,120,0.0,-999.0,71,-99.99,,,0.63,weatherlink.com 1.10,2013-07-28 21:27:00,
2013-07-28 17:42:00,83.4,72.0,29.86,ESE,120,0.0,-999.0,69,-99.99,,,0.63,weatherlink.com 1.10,2013-07-28 21:42:00,
2013-07-28 17:57:00,82.1,71.0,29.86,ENE,60,2.0,-999.0,68,-99.99,,,0.63,weatherlink.com 1.10,2013-07-28 21:57:00,
2013-07-28 18:12:00,80.6,70.0,29.86,NE,56,0.0,-999.0,71,-99.99,,,0.63,weatherlink.com 1.10,2013-07-28 22:12:00,
2013-07-28 18:27:00,80.9,72.0,29.87,ENE,59,0.0,-999.0,74,-99.99,,,0.63,weatherlink.com 1.10,2013-07-28 22:27:00,
2013-07-28 18:42:00,81.8,72.0,29.87,ENE,59,0.0,-999.0,72,-99.99,,,0.63,weatherlink.com 1.10,2013-07-28 22:42:00,
2013-07-28 18:57:00,83.0,72.0,29.87,ENE,59,0.0,-999.0,70,-99.99,,,0.63,weatherlink.com 1.10,2013-07-28 22:57:00,
2013-07-28 19:12:00,83.3,71.0,29.88,ENE,59,0.0,-999.0,67,-99.99,,,0.63,weatherlink.com 1.10,2013-07-28 23:12:00,
2013-07-28 19:27:00,83.1,71.0,29.88,ENE,59,0.0,-999.0,68,-99.99,,,0.63,weatherlink.com 1.10,2013-07-28 23:27:00,
2013-07-28 19:42:00,82.4,71.0,29.88,ENE,59,0.0,-999.0,68,-99.99,,,0.63,weatherlink.com 1.10,2013-07-28 23:42:00,
2013-07-28 19:57:00,81.5,72.0,29.89,ENE,59,0.0,-999.0,72,-99.99,,,0.63,weatherlink.com 1.10,2013-07-28 23:57:00,
2013-07-28 20:12:00,79.9,71.0,29.89,ENE,59,0.0,-999.0,75,-99.99,,,0.63,weatherlink.com 1.10,2013-07-29 00:12:00,
2013-07-28 20:27:00,77.9,70.0,29.89,ENE,59,0.0,-999.0,76,-99.99,,,0.63,weatherlink.com 1.10,2013-07-29 00:27:00,
2013-07-28 20:42:00,76.1,69.0,29.89,ENE,59,0.0,-999.0,78,-99.99,,,0.63,weatherlink.com 1.10,2013-07-29 00:42:00,
2013-07-28 20:57:00,74.4,68.0,29.90,ENE,59,0.0,-999.0,80,-99.99,,,0.63,weatherlink.com 1.10,2013-07-29 00:57:00,
2013-07-28 21:12:00,73.0,68.0,29.90,ENE,59,0.0,-999.0,83,-99.99,,,0.63,weatherlink.com 1.10,2013-07-29 01:12:00,
2013-07-28 21:27:00,71.8,67.0,29.91,ENE,59,0.0,-999.0,85,-99.99,,,0.63,weatherlink.com 1.10,2013-07-29 01:27:00,
2013-07-28 21:50:00,70.1,66.0,29.91,ENE,59,0.0,0.0,87,0.00,,,0.63,Wunderground v.1.15,2013-07-29 01:50:00,
2013-07-28 21:55:00,69.9,65.9,29.92,ENE,59,0.0,0.0,87,0.00,,,0.63,Wunderground v.1.15,2013-07-29 01:55:00,
2013-07-28 21:57:00,69.7,66.0,29.92,ENE,59,0.0,-999.0,87,-99.99,,,0.63,weatherlink.com 1.10,2013-07-29 01:57:00,
2013-07-28 22:00:00,69.6,65.6,29.92,ENE,59,0.0,0.0,87,0.00,,,0.63,Wunderground v.1.15,2013-07-29 02:00:00,
2013-07-28 22:10:00,69.2,65.5,29.92,ENE,59,0.0,0.0,88,0.00,,,0.63,Wunderground v.1.15,2013-07-29 02:10:00,
2013-07-28 22:13:00,69.0,65.0,29.92,ENE,59,0.0,-999.0,88,-99.99,,,0.63,weatherlink.com 1.10,2013-07-29 02:13:00,
2013-07-28 22:20:00,68.8,65.4,29.92,ENE,59,0.0,0.0,89,0.00,,,0.63,Wunderground v.1.15,2013-07-29 02:20:00,
2013-07-28 22:28:00,68.6,65.0,29.93,ENE,59,0.0,-999.0,89,-99.99,,,0.63,weatherlink.com 1.10,2013-07-29 02:28:00,
2013-07-28 22:30:00,68.6,65.2,29.93,ENE,59,0.0,0.0,89,0.00,,,0.63,Wunderground v.1.15,2013-07-29 02:30:00,
2013-07-28 22:35:00,68.4,65.0,29.93,ENE,59,0.0,0.0,89,0.00,,,0.63,Wunderground v.1.15,2013-07-29 02:35:00,
2013-07-28 22:58:00,67.6,65.0,29.94,ENE,59,0.0,-999.0,91,-99.99,,,0.63,weatherlink.com 1.10,2013-07-29 02:58:00,
2013-07-28 23:13:00,67.2,65.0,29.94,ENE,59,0.0,-999.0,91,-99.99,,,0.63,weatherlink.com 1.10,2013-07-29 03:13:00,
2013-07-28 23:28:00,66.9,64.0,29.94,ENE,59,0.0,-999.0,91,-99.99,,,0.63,weatherlink.com 1.10,2013-07-29 03:28:00,
2013-07-28 23:43:00,66.6,64.0,29.94,ENE,59,0.0,-999.0,91,-99.99,,,0.63,weatherlink.com 1.10,2013-07-29 03:43:00,
2013-07-28 23:58:00,66.2,64.0,29.94,ENE,59,0.0,-999.0,91,-99.99,,,0.63,weatherlink.com 1.10,2013-07-29 03:58:00,